TimeCDT,TemperatureF,Dew PointF,Humidity,Sea Level PressureIn,VisibilityMPH,Wind Direction,Wind SpeedMPH,Gust SpeedMPH,PrecipitationIn,Events,Conditions,WindDirDegrees,DateUTC
12:54 AM,44.1,34.0,68,30.35,10.0,ESE,10.4,-,N/A,,Clear,110,2013-04-21 05:54:00
1:54 AM,43.0,34.0,71,30.34,10.0,ESE,11.5,-,N/A,,Clear,110,2013-04-21 06:54:00
2:54 AM,43.0,34.0,71,30.35,10.0,ESE,10.4,-,N/A,,Clear,110,2013-04-21 07:54:00
3:54 AM,41.0,34.0,76,30.36,10.0,East,9.2,-,N/A,,Clear,100,2013-04-21 08:54:00
4:54 AM,42.1,34.0,73,30.37,10.0,ESE,10.4,-,N/A,,Partly Cloudy,110,2013-04-21 09:54:00
5:54 AM,42.1,33.1,70,30.38,10.0,ESE,11.5,-,N/A,,Scattered Clouds,110,2013-04-21 10:54:00
6:54 AM,42.1,33.1,70,30.41,10.0,ESE,10.4,-,N/A,,Mostly Cloudy,110,2013-04-21 11:54:00
7:54 AM,43.0,33.1,68,30.42,10.0,ESE,11.5,-,N/A,,Mostly Cloudy,110,2013-04-21 12:54:00
8:54 AM,46.0,32.0,58,30.42,10.0,SE,12.7,-,N/A,,Partly Cloudy,130,2013-04-21 13:54:00
9:54 AM,48.9,34.0,56,30.42,10.0,SE,13.8,-,N/A,,Clear,140,2013-04-21 14:54:00
10:54 AM,52.0,36.0,54,30.41,10.0,ESE,11.5,-,N/A,,Clear,120,2013-04-21 15:54:00
11:54 AM,55.0,36.0,49,30.39,10.0,SE,15.0,-,N/A,,Clear,140,2013-04-21 16:54:00
12:54 PM,57.0,37.0,47,30.36,10.0,SE,10.4,-,N/A,,Clear,140,2013-04-21 17:54:00
1:54 PM,60.1,39.0,46,30.33,10.0,SE,10.4,-,N/A,,Partly Cloudy,140,2013-04-21 18:54:00
2:54 PM,61.0,37.9,42,30.30,10.0,ESE,9.2,-,N/A,,Clear,120,2013-04-21 19:54:00
3:54 PM,62.1,41.0,46,30.27,10.0,ESE,15.0,20.7,N/A,,Clear,110,2013-04-21 20:54:00
4:54 PM,61.0,41.0,48,30.25,10.0,ESE,13.8,19.6,N/A,,Partly Cloudy,110,2013-04-21 21:54:00
5:54 PM,60.1,41.0,49,30.26,10.0,ESE,13.8,-,N/A,,Overcast,120,2013-04-21 22:54:00
6:54 PM,59.0,41.0,51,30.25,10.0,ESE,12.7,-,N/A,,Partly Cloudy,110,2013-04-21 23:54:00
7:54 PM,55.9,42.1,60,30.26,10.0,ESE,9.2,-,N/A,,Clear,120,2013-04-22 00:54:00
8:54 PM,55.0,41.0,59,30.27,10.0,SE,8.1,-,N/A,,Clear,130,2013-04-22 01:54:00
9:54 PM,52.0,42.1,69,30.29,10.0,ESE,5.8,-,N/A,,Clear,110,2013-04-22 02:54:00
10:54 PM,51.1,43.0,74,30.28,10.0,East,9.2,-,N/A,,Clear,100,2013-04-22 03:54:00
11:54 PM,48.0,41.0,77,30.27,10.0,East,8.1,-,N/A,,Clear,100,2013-04-22 04:54:00